Stations météo

réclame
Mon MeteoGroup
Cluanie Inn No 3, Grande-Bretagne (99117): Température de l'air & dewpoint: 19.04.2018 01:00:00 - 25.04.2018 01:00:00 (BST)Cluanie Inn No 3, Grande-Bretagne (99117): Quantités de précipitations: 19.04.2018 01:00:00 - 25.04.2018 01:00:00 (BST)
Date & Time tt [°C] td [°C] rr [mm]
25.04.2018 01:00:00 6,4 3,1 0,0
25.04.2018 00:00:00 6,8 3,1 0,0
24.04.2018 23:00:00 7,0 2,9 0,0
24.04.2018 22:00:00 7,1 2,8 0,0
24.04.2018 21:00:00 7,4 2,5 0,0
24.04.2018 20:00:00 8,1 2,7 0,0
24.04.2018 19:00:00 8,6 2,9 0,0
24.04.2018 18:00:00 9,1 2,9 0,0
24.04.2018 17:00:00 9,5 2,2 0,0
24.04.2018 16:00:00 10,4 3,7 0,0
24.04.2018 15:00:00 10,2 5,7 0,2
24.04.2018 14:00:00 9,9 2,6 0,0
24.04.2018 13:00:00 9,6 3,1 0,0
24.04.2018 12:00:00 8,6 3,8 0,0
24.04.2018 11:00:00 8,0 2,5 0,0
24.04.2018 10:00:00 8,4 3,1 0,0
24.04.2018 09:00:00 7,2 3,1 0,0
24.04.2018 08:00:00 6,6 3,2 0,0
24.04.2018 07:00:00 6,5 3,4 0,6
24.04.2018 06:00:00 6,7 2,6 0,0
24.04.2018 05:00:00 6,6 3,1 0,0
24.04.2018 04:00:00 6,5 3,0 0,2
24.04.2018 03:00:00 6,3 3,5 0,2
24.04.2018 02:00:00 6,5 3,9 0,2
24.04.2018 01:00:00 7,0 3,5 -
24.04.2018 00:00:00 7,0 3,6 0,8
23.04.2018 23:00:00 8,2 6,1 0,8
23.04.2018 22:00:00 8,2 6,8 0,6
23.04.2018 21:00:00 7,7 7,1 2,2
23.04.2018 20:00:00 7,6 6,8 1,4
23.04.2018 19:00:00 7,6 6,2 0,4
23.04.2018 18:00:00 7,8 5,9 0,2
23.04.2018 17:00:00 8,1 5,3 0,4
23.04.2018 16:00:00 8,3 4,0 0,2
23.04.2018 15:00:00 8,7 5,2 0,4
23.04.2018 14:00:00 7,6 5,1 0,2
23.04.2018 13:00:00 7,8 5,0 0,2
23.04.2018 12:00:00 8,2 4,5 0,2
23.04.2018 11:00:00 7,5 5,9 0,2
23.04.2018 10:00:00 7,8 4,5 0,0
23.04.2018 09:00:00 7,4 4,6 0,6
23.04.2018 08:00:00 7,0 5,5 1,8
23.04.2018 07:00:00 7,3 5,7 2,0
23.04.2018 06:00:00 7,9 5,9 1,2
23.04.2018 05:00:00 8,0 5,1 1,0
23.04.2018 04:00:00 7,6 5,8 0,6
23.04.2018 03:00:00 7,6 5,9 0,6
23.04.2018 02:00:00 7,4 5,7 1,0
23.04.2018 01:00:00 7,5 5,6 0,6
23.04.2018 00:00:00 7,7 5,6 0,4
22.04.2018 23:00:00 7,5 5,7 0,2
22.04.2018 22:00:00 8,1 5,3 1,4
22.04.2018 21:00:00 7,5 6,0 1,0
22.04.2018 20:00:00 7,5 5,5 1,4
22.04.2018 19:00:00 7,7 5,2 0,2
22.04.2018 18:00:00 8,1 3,9 0,2
22.04.2018 17:00:00 8,8 4,7 0,4
22.04.2018 16:00:00 8,0 4,6 0,2
22.04.2018 15:00:00 7,5 4,4 0,8
22.04.2018 14:00:00 8,5 6,2 1,0
22.04.2018 13:00:00 9,3 6,2 0,2
22.04.2018 12:00:00 8,9 5,5 0,0
22.04.2018 11:00:00 8,6 5,8 0,4
22.04.2018 10:00:00 8,9 5,4 0,4
22.04.2018 09:00:00 9,1 5,1 1,4
22.04.2018 08:00:00 8,6 4,9 0,2
22.04.2018 07:00:00 6,0 2,5 0,0
22.04.2018 06:00:00 5,1 1,4 0,0
22.04.2018 05:00:00 4,1 1,6 0,0
22.04.2018 04:00:00 5,5 3,0 0,0
22.04.2018 03:00:00 4,6 2,3 0,0
22.04.2018 02:00:00 6,3 2,9 0,0
22.04.2018 01:00:00 7,0 3,3 0,0
22.04.2018 00:00:00 6,6 3,3 0,0
21.04.2018 23:00:00 8,7 3,9 0,0
21.04.2018 22:00:00 9,0 4,3 0,0
21.04.2018 21:00:00 10,8 4,4 0,0
21.04.2018 20:00:00 12,6 3,9 0,0
21.04.2018 19:00:00 13,7 4,3 0,0
21.04.2018 18:00:00 14,5 4,2 0,0
21.04.2018 17:00:00 15,0 4,1 0,0
21.04.2018 16:00:00 14,3 4,7 0,0
21.04.2018 15:00:00 13,7 3,5 0,0
21.04.2018 14:00:00 13,9 4,1 0,0
21.04.2018 13:00:00 12,8 5,2 0,0
21.04.2018 12:00:00 11,7 4,6 0,0
21.04.2018 11:00:00 10,5 4,7 0,0
21.04.2018 10:00:00 9,6 5,0 0,0
21.04.2018 09:00:00 7,8 4,9 0,0
21.04.2018 08:00:00 7,3 4,6 0,0
21.04.2018 07:00:00 5,8 4,0 0,0
21.04.2018 06:00:00 5,4 4,1 0,0
21.04.2018 05:00:00 5,3 3,9 0,0
21.04.2018 04:00:00 5,0 3,8 0,0
21.04.2018 03:00:00 5,5 4,0 0,0
21.04.2018 02:00:00 4,7 3,2 0,0
21.04.2018 01:00:00 4,8 3,1 0,0
21.04.2018 00:00:00 5,4 3,3 0,0
20.04.2018 23:00:00 6,6 4,0 0,0
20.04.2018 22:00:00 7,7 3,7 0,0
20.04.2018 21:00:00 8,0 3,6 0,0
20.04.2018 20:00:00 8,3 3,8 0,0
20.04.2018 19:00:00 8,7 4,2 0,0
20.04.2018 18:00:00 8,5 4,7 0,4
20.04.2018 17:00:00 9,3 6,0 0,4
20.04.2018 16:00:00 9,5 6,4 1,0
20.04.2018 15:00:00 9,4 7,0 0,6
20.04.2018 14:00:00 9,1 6,4 0,6
20.04.2018 13:00:00 9,5 5,3 0,0
20.04.2018 12:00:00 9,6 5,2 0,0
20.04.2018 11:00:00 10,0 7,2 0,4
20.04.2018 10:00:00 10,3 8,0 0,8
20.04.2018 09:00:00 10,9 6,0 0,0
20.04.2018 08:00:00 10,0 4,2 0,0
20.04.2018 07:00:00 9,1 4,9 0,0
20.04.2018 06:00:00 8,5 5,6 0,0
20.04.2018 05:00:00 8,1 5,5 0,0
20.04.2018 04:00:00 7,7 4,8 0,0
20.04.2018 03:00:00 7,0 4,8 0,0
20.04.2018 02:00:00 6,4 3,7 0,0
20.04.2018 01:00:00 7,4 4,2 0,0
20.04.2018 00:00:00 7,9 4,0 0,0
19.04.2018 23:00:00 7,9 3,8 0,0
19.04.2018 22:00:00 8,5 4,0 0,0
19.04.2018 21:00:00 10,4 4,9 0,0
19.04.2018 20:00:00 11,1 6,1 0,0
19.04.2018 19:00:00 11,9 7,4 0,2
19.04.2018 18:00:00 11,8 8,8 0,0
19.04.2018 17:00:00 12,7 8,5 0,0
19.04.2018 16:00:00 13,2 7,8 0,0
19.04.2018 15:00:00 12,9 8,0 0,0
19.04.2018 14:00:00 13,3 7,6 0,0
19.04.2018 13:00:00 13,7 7,5 0,0
19.04.2018 12:00:00 13,8 7,3 0,0
19.04.2018 11:00:00 13,1 7,4 0,0
19.04.2018 10:00:00 13,0 7,8 0,0
19.04.2018 09:00:00 12,8 7,7 0,0
19.04.2018 08:00:00 - - -
19.04.2018 07:00:00 - - -
19.04.2018 06:00:00 - - -
19.04.2018 05:00:00 - - -
19.04.2018 04:00:00 - - -
19.04.2018 03:00:00 - - -
19.04.2018 02:00:00 15,1 7,7 0,0
19.04.2018 01:00:00 15,9 7,5 0,0

tt = Température de l'air
td = dewpoint
rr = Quantités de précipitations

stations d'obs. à proximité